Temperature
-1 -1 -1 -2 -2 -3 -4 -3 -3 -3 -3 -3 -4 -4 -4 -5 -5 -6 -6 -7 -7 -7 -7 -7 -7 -7 -7 -7 -7 -7 -7 -7 -7 -7 -7 -6 -6 -6 -6 -5 -5 -5 -5 -4
-2 -1 -2 -2 -2 -3 -4 -4 -4 -4 -4 -4 -4 -5 -5 -6 -6 -7 -7 -7 -8 -8 -8 -8 -8 -8 -8 -8 -8 -8 -7 -7 -7 -7 -7 -7 -7 -7 -6 -6 -6 -6 -5 -5
-2 -2 -2 -3 -4 -4 -5 -5 -5 -5 -5 -5 -6 -6 -6 -6 -7 -7 -7 -8 -8 -8 -8 -8 -8 -8 -8 -8 -8 -8 -8 -8 -8 -8 -8 -8 -8 -7 -7 -7 -7 -6 -6 -6
-2 -2 -3 -2 -5 -4 -5 -6 -6 -6 -6 -6 -6 -6 -7 -7 -7 -8 -8 -8 -8 -8 -9 -9 -9 -9 -9 -9 -9 -9 -8 -8 -8 -8 -8 -8 -8 -8 -8 -8 -7 -7 -7 -7
-3 -3 -2 -3 -5 -6 -6 -6 -7 -7 -7 -7 -7 -7 -7 -7 -7 -8 -8 -8 -9 -9 -9 -9 -9 -9 -9 -9 -9 -9 -9 -9 -9 -9 -9 -9 -9 -9 -9 -8 -8 -8 -8 -7
-3 -3 -3 -3 -6 -6 -6 -6 -7 -7 -8 -8 -8 -8 -8 -8 -8 -9 -9 -9 -9 -9 -10 -10 -10 -10 -10 -10 -10 -10 -10 -10 -10 -10 -9 -9 -9 -9 -9 -9 -9 -8 -8 -8
-4 -4 -4 -7 -7 -6 -6 -5 -7 -7 -7 -8 -9 -9 -8 -9 -9 -9 -9 -10 -10 -10 -10 -10 -10 -10 -10 -10 -10 -10 -10 -10 -10 -10 -10 -10 -10 -10 -10 -10 -9 -9 -9 -8
-4 -4 -4 -8 -8 -8 -7 -7 -7 -8 -8 -9 -9 -9 -9 -10 -10 -10 -10 -10 -10 -11 -11 -11 -11 -11 -11 -11 -11 -11 -11 -11 -10 -10 -10 -10 -10 -10 -10 -10 -10 -10 -9 -9
-6 -6 -7 -8 -8 -7 -7 -8 -8 -8 -9 -9 -9 -10 -10 -10 -10 -11 -11 -11 -11 -11 -11 -11 -11 -12 -12 -11 -11 -11 -11 -11 -11 -11 -11 -11 -11 -11 -10 -11 -11 -11 -10 -10
-7 -8 -7 -7 -8 -8 -8 -8 -9 -9 -9 -10 -10 -10 -10 -11 -11 -11 -11 -11 -11 -11 -11 -11 -12 -12 -12 -12 -12 -12 -12 -11 -11 -11 -11 -11 -11 -11 -11 -11 -11 -11 -11 -11
-8 -9 -8 -8 -8 -8 -8 -9 -9 -9 -10 -10 -10 -10 -11 -11 -11 -11 -11 -11 -12 -12 -12 -12 -12 -12 -12 -12 -12 -12 -12 -12 -12 -12 -12 -11 -12 -12 -12 -12 -12 -12 -12 -12
-8 -8 -9 -8 -8 -9 -9 -9 -9 -10 -10 -10 -10 -11 -11 -11 -11 -11 -11 -12 -12 -12 -12 -12 -12 -12 -12 -12 -12 -12 -12 -12 -12 -12 -12 -12 -12 -12 -12 -12 -12 -12 -12 -12
-8 -8 -8 -9 -9 -9 -9 -10 -10 -10 -10 -10 -11 -11 -11 -11 -11 -12 -12 -12 -12 -12 -12 -12 -12 -12 -12 -12 -13 -13 -13 -13 -12 -13 -13 -13 -13 -13 -12 -12 -12 -12 -12 -12
-9 -9 -9 -9 -9 -10 -10 -10 -10 -10 -10 -11 -11 -11 -11 -11 -12 -12 -12 -12 -12 -12 -12 -12 -12 -12 -12 -13 -13 -13 -13 -13 -13 -13 -13 -13 -13 -13 -13 -13 -12 -12 -12 -12
-9 -9 -10 -10 -10 -10 -10 -10 -10 -11 -11 -11 -11 -11 -11 -12 -12 -12 -12 -12 -12 -12 -12 -12 -12 -12 -13 -13 -13 -13 -13 -13 -13 -13 -13 -13 -13 -13 -13 -13 -13 -13 -12 -12
-10 -10 -10 -10 -10 -10 -10 -10 -11 -11 -11 -11 -11 -11 -12 -12 -12 -12 -12 -12 -12 -12 -13 -13 -13 -13 -13 -13 -13 -13 -13 -13 -13 -13 -13 -14 -14 -14 -14 -14 -13 -13 -13 -13
-10 -10 -10 -10 -10 -10 -11 -11 -11 -11 -11 -12 -12 -12 -12 -12 -12 -12 -12 -13 -13 -13 -13 -13 -13 -13 -13 -13 -13 -13 -13 -13 -13 -14 -14 -14 -14 -14 -14 -14 -14 -14 -14 -14
-9 -10 -10 -10 -10 -11 -11 -11 -11 -12 -12 -12 -12 -12 -12 -12 -12 -12 -13 -13 -13 -13 -13 -13 -13 -13 -13 -13 -13 -13 -13 -13 -14 -14 -14 -14 -14 -14 -14 -14 -14 -14 -14 -14
-10 -10 -10 -10 -10 -11 -11 -11 -11 -12 -12 -12 -12 -12 -12 -12 -13 -13 -13 -13 -13 -13 -13 -13 -13 -13 -13 -13 -14 -14 -14 -14 -14 -14 -14 -14 -14 -14 -14 -14 -14 -14 -14 -14
-10 -10 -10 -10 -11 -11 -11 -11 -12 -12 -12 -12 -12 -12 -13 -13 -13 -13 -13 -13 -13 -13 -13 -13 -13 -13 -13 -14 -14 -14 -14 -14 -14 -14 -14 -14 -14 -14 -14 -14 -14 -14 -15 -15
-10 -10 -10 -11 -11 -11 -11 -12 -12 -12 -12 -12 -13 -13 -13 -13 -13 -13 -13 -13 -13 -13 -13 -13 -14 -14 -14 -14 -14 -14 -14 -14 -14 -14 -14 -14 -15 -15 -15 -15 -15 -15 -15 -15
-10 -10 -11 -11 -11 -11 -12 -12 -12 -12 -12 -13 -13 -13 -13 -13 -13 -13 -13 -13 -13 -14 -14 -14 -14 -14 -14 -14 -14 -14 -14 -14 -15 -15 -15 -15 -15 -15 -15 -15 -15 -15 -15 -15
-10 -11 -11 -11 -11 -12 -12 -12 -12 -13 -13 -13 -13 -13 -13 -13 -14 -14 -14 -14 -14 -14 -14 -14 -14 -14 -14 -14 -14 -15 -15 -15 -15 -15 -15 -15 -15 -15 -15 -15 -15 -15 -15 -15
-11 -11 -11 -12 -12 -12 -12 -12 -13 -13 -13 -13 -13 -13 -14 -14 -14 -14 -14 -14 -14 -14 -14 -14 -15 -15 -15 -15 -15 -15 -15 -15 -15 -15 -15 -15 -15 -15 -15 -15 -15 -16 -16 -15
-11 -11 -12 -12 -12 -12 -13 -13 -13 -13 -13 -13 -13 -14 -14 -14 -14 -14 -14 -14 -15 -15 -15 -15 -15 -15 -15 -15 -15 -15 -15 -15 -15 -15 -15 -15 -15 -15 -15 -16 -16 -16 -16 -16
-12 -12 -12 -12 -13 -13 -13 -13 -13 -14 -14 -14 -14 -14 -14 -14 -14 -15 -15 -15 -15 -15 -15 -15 -15 -15 -15 -15 -15 -15 -16 -16 -16 -16 -16 -16 -16 -16 -16 -16 -16 -16 -16 -16
-12 -12 -13 -13 -13 -13 -13 -14 -14 -14 -14 -14 -14 -14 -14 -15 -15 -15 -15 -15 -15 -15 -15 -15 -15 -16 -16 -16 -16 -16 -16 -16 -16 -16 -16 -16 -16 -16 -16 -16 -16 -16 -16 -16
Wind_Speed
5 5 4 6 6 6 7 7 7 6 6 7 4 3 2 1 1 1 2 3 3 3 3 4 4 5 5 6 6 7 7 7 6 6 6 7 7 7 7 7 7 6 6 6
4 5 4 8 7 7 7 7 8 8 9 6 3 1 2 2 2 2 3 3 3 3 4 4 4 5 6 6 6 7 7 7 7 7 7 7 7 7 7 7 7 7 6 6
4 2 5 7 5 6 4 4 5 7 6 2 2 2 2 2 3 4 4 3 3 4 4 4 5 5 5 6 6 6 7 7 7 7 7 7 8 7 7 7 7 7 7 6
3 3 5 4 1 3 5 3 4 4 3 2 3 3 3 2 2 3 3 3 3 4 4 4 4 4 5 5 6 6 7 7 7 7 7 8 7 7 7 7 7 7 7 7
2 4 6 2 1 2 3 4 3 5 4 4 3 3 3 2 1 2 2 2 3 3 3 4 4 5 5 5 6 6 7 7 7 7 8 8 8 8 7 7 7 7 7 7
3 3 5 3 1 1 1 3 1 1 2 2 2 2 3 2 3 3 3 2 3 3 4 4 4 4 5 6 6 7 7 8 7 7 7 7 8 8 7 7 7 8 8 7
5 5 5 1 1 1 2 3 1 1 1 1 2 3 3 3 3 2 3 3 3 3 3 4 4 4 4 5 6 7 7 8 8 7 7 7 7 7 6 7 7 7 8 7
3 5 6 1 3 3 3 1 1 1 2 2 3 3 3 3 3 3 3 3 3 3 4 4 4 4 5 6 6 6 7 7 7 7 7 7 6 6 6 6 7 7 7 7
4 4 1 3 3 1 0 1 2 2 3 2 3 4 4 4 3 3 3 3 3 3 4 4 4 4 5 6 6 6 7 7 7 8 7 7 6 6 6 5 5 6 6 6
2 3 1 2 1 1 1 2 3 2 3 3 4 4 4 4 4 3 3 3 3 3 4 5 4 5 5 6 6 6 7 7 7 7 7 6 6 5 5 5 5 6 6 6
3 3 2 1 1 1 2 2 3 3 3 3 3 4 4 4 4 3 4 3 3 3 4 5 5 5 6 5 5 6 6 7 7 7 7 6 6 5 6 5 5 6 5 6
4 3 2 3 1 1 2 3 3 3 4 3 3 4 4 4 3 3 4 3 3 4 5 5 5 6 6 5 5 5 6 6 6 6 6 6 6 6 9 9 11 11 10 9
3 1 1 3 2 1 1 3 3 3 4 4 3 3 3 3 3 3 4 4 4 5 5 6 6 6 6 5 5 5 6 6 6 6 5 6 6 6 7 8 10 11 11 11
1 0 2 2 2 2 2 3 3 3 3 3 3 3 3 3 3 4 4 5 5 5 5 6 6 7 6 5 5 6 6 8 7 5 5 5 6 6 6 7 7 6 8 11
1 1 2 2 2 3 2 2 3 4 4 3 3 3 3 3 4 5 5 5 5 5 5 5 6 7 6 5 6 6 6 5 5 5 5 5 5 5 5 6 6 6 5 7
2 1 2 2 3 3 3 3 3 4 4 4 4 4 4 4 5 5 5 4 4 6 6 6 7 7 6 5 6 5 5 9 8 5 5 5 5 5 5 5 5 5 5 5
2 2 2 3 4 4 4 4 4 4 4 4 5 4 4 4 5 5 5 5 5 6 6 6 7 7 6 5 5 5 5 7 9 6 5 5 5 5 5 5 5 5 5 7
4 4 4 4 4 4 5 4 4 4 4 4 4 3 3 4 5 6 6 5 6 6 6 6 6 6 6 5 5 4 5 5 5 5 5 5 5 5 5 5 5 5 5 6
3 3 3 3 3 3 4 4 4 4 4 3 3 4 4 5 5 6 5 5 6 7 6 5 9 7 6 7 7 4 5 5 5 5 5 7 7 5 4 4 5 5 5 5
2 2 3 3 3 3 4 4 4 4 3 3 3 4 5 6 5 5 5 6 6 5 6 7 7 6 6 6 8 4 4 5 5 5 5 4 5 5 5 5 5 5 5 5
3 3 3 3 3 3 3 3 3 4 4 3 4 5 6 6 5 4 5 6 6 5 6 8 5 5 5 7 8 4 4 5 5 5 5 5 5 5 5 5 5 5 5 5
3 3 3 3 3 3 3 3 3 4 4 4 5 5 5 6 6 5 5 5 6 9 6 4 5 7 9 9 5 4 5 5 5 4 4 5 5 5 5 5 5 5 5 5
3 3 3 3 3 4 4 3 4 4 4 5 5 5 6 6 5 5 6 5 5 9 7 5 8 11 12 6 4 4 5 5 5 5 5 5 5 5 5 6 5 5 5 5
2 2 2 2 2 3 4 4 4 4 4 5 5 5 5 5 5 4 4 8 10 10 6 9 12 12 11 5 4 4 4 5 5 5 5 5 5 5 5 5 5 5 5 6
2 2 2 2 3 3 4 4 4 4 4 4 5 5 4 4 4 5 5 6 10 10 6 9 12 12 7 4 5 5 5 5 5 5 5 5 5 5 5 5 5 5 5 5
2 2 2 3 3 3 3 3 3 4 4 4 4 4 4 4 4 5 5 5 7 9 6 5 6 8 5 5 5 6 5 6 7 6 5 5 6 6 6 6 6 6 6 6
2 2 2 3 3 3 3 3 4 4 4 4 5 5 4 4 4 5 5 5 5 5 5 5 5 5 5 5 5 5 5 5 5 5 5 5 5 6 6 7 6 7 6 6
Wind_Direction
266 283 273 252 242 207 209 223 234 257 267 281 292 307 320 342 351 344 335 334 334 330 326 334 342 343 341 337 337 335 329 324 323 323 325 325 323 321 319 315 310 303 296 285
274 256 264 274 258 229 227 237 246 267 277 279 289 332 336 329 317 300 303 308 313 322 331 334 337 336 336 332 331 331 325 323 325 327 327 325 322 320 320 318 314 308 299 294
270 274 300 273 246 209 205 217 212 236 250 305 330 309 285 287 292 292 294 302 312 322 324 328 332 336 332 327 328 328 326 325 328 329 327 324 323 324 320 316 311 307 304 298
280 315 256 244 68 160 188 231 219 239 281 308 298 304 307 288 278 295 308 320 323 325 327 329 333 336 328 326 325 327 326 325 329 329 324 321 322 320 317 314 312 307 304 299
247 266 268 242 170 139 185 272 237 236 275 309 327 320 319 346 4 320 318 319 319 323 321 323 327 327 327 327 329 329 327 325 325 323 320 320 320 317 315 314 311 307 303 300
236 249 253 247 133 75 108 278 332 184 252 291 342 297 292 12 16 360 352 345 335 330 327 324 323 330 330 325 327 324 321 318 316 314 313 313 312 310 311 310 306 309 306 300
236 245 260 252 207 137 178 256 359 20 299 299 259 254 292 334 335 334 335 330 328 322 319 317 321 328 320 320 319 317 318 318 317 315 311 307 307 309 311 312 314 313 310 307
210 230 252 133 127 176 220 5 18 347 323 298 284 301 311 315 315 321 323 321 322 318 314 314 318 320 316 313 312 318 319 318 317 316 313 313 312 311 312 314 316 315 314 314
198 217 170 150 166 207 57 305 309 315 310 298 290 290 298 300 295 296 299 303 308 305 307 311 316 319 309 307 314 317 319 318 316 316 315 314 311 312 314 315 317 317 318 317
258 259 232 189 197 295 290 275 293 298 291 282 276 278 284 290 292 293 293 294 298 303 306 309 313 313 302 306 311 313 314 314 314 316 317 318 315 313 313 314 313 315 317 317
246 270 300 244 210 274 300 313 309 304 290 283 275 276 277 281 285 288 298 300 302 295 295 299 307 307 308 311 311 311 310 310 314 316 314 316 315 308 306 295 299 304 305 305
233 230 227 268 307 295 283 289 293 297 298 290 271 275 283 281 282 287 293 295 297 296 297 300 304 303 304 306 306 307 311 313 314 314 313 314 313 313 313 310 311 307 306 308
229 291 259 272 314 347 291 292 300 290 282 288 289 281 283 282 288 293 294 295 293 294 295 298 301 301 304 307 305 302 301 306 308 310 311 314 315 316 317 318 315 316 316 317
230 314 283 279 297 319 307 304 307 299 291 284 282 284 284 287 295 294 292 292 294 297 298 298 300 300 303 307 305 302 300 304 307 302 304 305 307 308 310 315 319 318 318 323
226 229 237 280 308 314 317 318 314 305 304 303 295 286 284 287 290 293 296 301 303 302 301 302 302 304 312 310 304 299 297 297 296 297 300 301 304 306 308 310 312 314 319 324
257 262 252 274 287 299 308 301 291 293 299 298 295 291 288 284 286 291 294 298 298 298 301 303 301 304 311 309 305 300 295 301 305 301 300 303 304 307 308 310 313 315 320 323
196 245 255 274 278 283 281 276 273 280 288 288 288 293 298 297 296 296 297 298 290 287 291 293 296 303 306 302 298 299 300 303 307 308 305 304 304 303 306 305 306 308 310 313
220 227 227 241 254 268 280 282 280 281 281 285 293 294 290 286 287 293 298 303 303 298 293 291 296 303 304 301 296 292 297 300 302 302 303 303 305 303 301 304 306 307 309 311
235 239 245 250 249 251 263 270 274 276 279 283 285 281 278 277 280 290 297 299 299 301 303 300 311 317 308 305 310 296 297 301 302 301 300 306 311 311 307 302 303 306 309 312
247 254 257 264 263 259 265 271 274 276 276 274 278 284 288 287 287 290 292 287 280 280 294 305 305 300 300 302 309 300 296 296 299 301 301 300 302 304 303 302 300 300 303 305
247 256 262 265 275 276 270 269 268 273 278 272 267 273 280 287 288 286 289 294 296 294 301 308 311 305 306 308 305 298 293 294 296 298 301 301 301 301 301 302 302 302 301 302
239 245 256 264 272 280 280 273 266 269 275 274 272 273 280 288 292 288 274 271 293 308 315 304 303 308 314 312 306 300 298 299 298 298 298 300 301 302 302 302 301 300 300 300
239 244 254 260 266 276 283 274 265 264 266 269 272 272 271 276 281 286 296 294 296 305 312 303 310 314 316 318 312 304 303 304 304 302 299 297 296 295 295 296 296 297 298 297
247 253 258 266 272 278 284 285 278 272 266 268 266 264 267 281 288 274 275 302 312 312 311 310 316 318 320 324 315 308 303 302 300 298 297 294 291 291 291 292 293 293 292 292
248 250 255 262 268 271 276 288 291 286 282 278 280 276 267 262 273 289 293 295 304 311 311 312 317 320 325 315 310 305 302 298 298 298 295 297 295 293 292 292 291 292 292 291
252 253 254 254 259 271 278 282 284 288 293 295 296 291 284 279 276 283 289 291 294 306 311 308 309 312 311 307 305 303 301 303 304 304 302 299 299 298 297 297 296 293 291 288
260 261 268 276 273 267 270 272 275 281 283 284 289 293 293 291 290 292 293 296 299 300 300 301 302 303 303 303 304 304 303 301 300 300 300 299 298 297 296 296 296 295 295 293
Height
1503 1501 1502 1503 1504 1506 1509 1507 1507 1502 1501 1498 1497 1497 1497 1496 1496 1495 1495 1493 1492 1490 1489 1487 1485 1483 1481 1479 1477 1475 1473 1471 1469 1467 1466 1464 1462 1461 1460 1459 1458 1457 1457 1457
1504 1500 1500 1500 1499 1501 1504 1505 1504 1502 1501 1496 1496 1496 1495 1495 1494 1493 1493 1491 1490 1488 1487 1485 1483 1481 1479 1477 1475 1473 1471 1469 1467 1465 1463 1461 1459 1457 1456 1455 1454 1453 1452 1452
1501 1499 1499 1499 1497 1499 1501 1501 1502 1502 1498 1495 1495 1494 1494 1493 1492 1491 1490 1489 1488 1486 1485 1483 1481 1479 1476 1474 1472 1470 1468 1466 1464 1462 1460 1458 1456 1454 1452 1451 1450 1449 1448 1447
1503 1503 1505 1495 1494 1494 1497 1498 1497 1496 1495 1494 1494 1493 1492 1491 1490 1489 1488 1487 1486 1484 1482 1480 1478 1476 1474 1472 1470 1467 1465 1463 1461 1459 1457 1455 1453 1451 1449 1448 1446 1445 1444 1443
1503 1503 1495 1493 1495 1495 1497 1497 1494 1494 1494 1493 1492 1491 1490 1489 1488 1488 1487 1485 1484 1482 1480 1478 1476 1474 1471 1469 1467 1464 1462 1460 1458 1456 1454 1452 1450 1448 1446 1444 1442 1441 1440 1439
1501 1501 1498 1493 1495 1494 1497 1497 1493 1492 1492 1492 1492 1493 1490 1488 1487 1486 1485 1483 1481 1479 1477 1475 1473 1471 1469 1466 1464 1462 1460 1458 1456 1454 1451 1449 1447 1445 1443 1441 1439 1437 1436 1435
1502 1501 1494 1496 1494 1495 1499 1494 1493 1491 1491 1491 1491 1491 1489 1486 1485 1483 1482 1480 1479 1477 1474 1472 1470 1468 1466 1463 1461 1459 1457 1455 1453 1451 1449 1447 1444 1442 1440 1438 1436 1434 1432 1431
1500 1500 1497 1496 1494 1496 1495 1492 1491 1490 1490 1489 1488 1487 1485 1484 1482 1480 1479 1477 1476 1474 1471 1470 1468 1465 1463 1461 1459 1457 1455 1452 1450 1448 1446 1444 1442 1439 1437 1435 1432 1430 1429 1427
1497 1496 1493 1492 1491 1491 1491 1490 1489 1489 1488 1487 1485 1483 1482 1481 1479 1478 1476 1474 1473 1471 1469 1467 1465 1463 1460 1458 1456 1454 1452 1449 1447 1445 1443 1441 1439 1436 1434 1432 1430 1428 1426 1424
1495 1491 1490 1490 1489 1489 1489 1488 1487 1486 1485 1484 1482 1480 1479 1478 1476 1475 1473 1471 1470 1468 1465 1464 1462 1460 1458 1456 1454 1451 1449 1446 1444 1442 1440 1438 1436 1434 1431 1429 1427 1425 1423 1421
1493 1490 1489 1487 1487 1487 1486 1485 1484 1483 1482 1481 1479 1477 1476 1475 1474 1472 1470 1469 1467 1465 1463 1461 1459 1457 1455 1453 1451 1449 1446 1444 1441 1439 1437 1435 1433 1431 1428 1427 1425 1423 1421 1419
1489 1487 1487 1486 1484 1484 1483 1482 1481 1480 1478 1477 1476 1475 1474 1472 1471 1469 1467 1466 1464 1462 1460 1458 1456 1454 1452 1450 1448 1445 1443 1441 1438 1436 1434 1431 1429 1427 1425 1424 1422 1420 1419 1417
1484 1484 1484 1483 1482 1482 1481 1480 1479 1477 1476 1475 1473 1472 1471 1469 1468 1466 1465 1463 1461 1459 1457 1455 1453 1451 1449 1447 1445 1442 1440 1438 1435 1433 1431 1428 1426 1424 1421 1420 1419 1417 1415 1413
1482 1482 1481 1480 1480 1479 1478 1477 1476 1475 1473 1472 1471 1469 1468 1467 1465 1463 1462 1460 1458 1456 1454 1452 1450 1448 1446 1443 1441 1439 1437 1435 1433 1430 1428 1426 1423 1421 1419 1416 1414 1412 1411 1410
1479 1479 1479 1478 1477 1477 1476 1474 1473 1472 1470 1469 1468 1467 1465 1464 1462 1461 1459 1457 1455 1453 1451 1449 1446 1444 1442 1440 1438 1436 1434 1431 1429 1427 1425 1423 1421 1419 1416 1414 1412 1410 1408 1406
1476 1476 1475 1475 1474 1474 1473 1472 1470 1469 1468 1467 1465 1464 1463 1461 1459 1458 1456 1454 1452 1450 1448 1445 1443 1441 1439 1437 1434 1432 1430 1428 1426 1424 1422 1420 1418 1416 1414 1411 1409 1407 1405 1404
1473 1472 1472 1472 1472 1471 1470 1469 1468 1467 1465 1464 1462 1461 1460 1458 1456 1455 1453 1451 1449 1447 1445 1443 1440 1438 1436 1433 1431 1429 1427 1425 1423 1421 1419 1417 1415 1413 1411 1409 1407 1405 1403 1402
1471 1470 1470 1469 1469 1468 1467 1467 1465 1464 1463 1461 1460 1458 1456 1455 1453 1452 1450 1448 1446 1444 1442 1440 1437 1435 1433 1430 1428 1426 1424 1422 1420 1418 1416 1414 1412 1410 1408 1406 1404 1402 1401 1399
1468 1468 1467 1467 1466 1466 1465 1464 1462 1461 1460 1458 1457 1455 1454 1452 1451 1449 1447 1445 1443 1440 1439 1437 1435 1432 1430 1428 1425 1423 1421 1419 1417 1414 1413 1411 1409 1407 1405 1403 1401 1400 1398 1396
1465 1465 1465 1464 1464 1463 1462 1461 1460 1458 1457 1456 1454 1452 1451 1449 1448 1446 1444 1442 1441 1439 1436 1434 1432 1429 1427 1425 1423 1420 1418 1416 1414 1412 1410 1407 1405 1403 1402 1400 1398 1397 1395 1394
1463 1462 1462 1461 1460 1460 1459 1458 1456 1455 1454 1453 1451 1449 1448 1447 1445 1443 1441 1439 1438 1436 1434 1432 1429 1427 1424 1422 1420 1418 1415 1413 1411 1409 1407 1405 1402 1401 1399 1397 1395 1394 1392 1391
1460 1459 1459 1458 1457 1457 1456 1455 1453 1452 1451 1450 1448 1447 1445 1443 1442 1440 1439 1437 1435 1433 1431 1428 1426 1424 1421 1419 1417 1414 1412 1410 1408 1406 1403 1401 1399 1398 1396 1394 1392 1390 1389 1387
1457 1457 1456 1456 1455 1453 1452 1451 1450 1449 1448 1446 1445 1444 1442 1440 1439 1437 1435 1434 1432 1430 1427 1425 1423 1421 1418 1416 1413 1411 1409 1406 1404 1402 1400 1398 1396 1394 1392 1390 1389 1387 1385 1384
1454 1454 1453 1453 1452 1450 1449 1448 1447 1446 1445 1443 1442 1441 1439 1437 1436 1434 1433 1430 1428 1426 1424 1422 1419 1417 1415 1412 1410 1407 1405 1403 1401 1399 1397 1395 1393 1391 1389 1387 1385 1383 1381 1380
1451 1451 1450 1449 1448 1447 1446 1445 1444 1442 1441 1440 1439 1438 1436 1434 1433 1431 1429 1427 1425 1422 1420 1418 1416 1413 1411 1408 1406 1404 1401 1399 1397 1395 1393 1391 1389 1387 1385 1383 1381 1379 1377 1376
1448 1448 1447 1446 1445 1444 1443 1442 1440 1439 1437 1436 1435 1434 1432 1431 1429 1427 1425 1423 1421 1419 1416 1414 1412 1409 1407 1404 1402 1400 1398 1396 1394 1391 1389 1387 1385 1383 1381 1379 1377 1375 1373 1372
1445 1444 1443 1443 1442 1441 1440 1438 1437 1435 1434 1432 1431 1430 1429 1427 1425 1423 1421 1419 1417 1415 1412 1410 1408 1405 1403 1401 1398 1396 1394 1392 1390 1388 1385 1383 1381 1379 1377 1375 1373 1371 1369 1368